Weather reports worldwide

Advertisment
Brest, France (7110): temperature & dewpoint: 20.10.2020 11:00:00 - 26.10.2020 11:00:00 (CET)Brest, France (7110): temperature 5cm: 20.10.2020 11:00:00 - 26.10.2020 11:00:00 (CET)Brest, France (7110): temperature -20cm & temperature -100cm: 20.10.2020 11:00:00 - 26.10.2020 11:00:00 (CET)Brest, France (7110): wind speed & gusts: 20.10.2020 11:00:00 - 26.10.2020 11:00:00 (CET)Brest, France (7110): wind direction: 20.10.2020 11:00:00 - 26.10.2020 11:00:00 (CET)Brest, France (7110): reduced air pressure: 20.10.2020 11:00:00 - 26.10.2020 11:00:00 (CET)Brest, France (7110): visibility: 20.10.2020 11:00:00 - 26.10.2020 11:00:00 (CET)Brest, France (7110): sunshine duration: 20.10.2020 11:00:00 - 26.10.2020 11:00:00 (CET)Brest, France (7110): precipitation: 20.10.2020 11:00:00 - 26.10.2020 11:00:00 (CET)
Date & Time tt [°C] td [°C] tt 5cm [°C] tt -20cm [°C] tt -100cm [°C] ff [km/h] ff [kn] fx [km/h] fx [kn] dd ppp [hPa] vv [km] sd [min] rr [mm]
26.10.2020 11:00:00 12,7 8,4 12,4 12,6 13,7 26 14 45 24 W 1006,2 18 58 0,0
26.10.2020 10:00:00 12,0 8,1 9,6 12,6 13,7 26 14 48 26 W 1006,0 20 48 0,0
26.10.2020 09:00:00 10,6 8,0 7,4 12,7 13,8 19 10 32 17 W 1005,4 19 12 0,2
26.10.2020 08:00:00 9,1 7,4 7,2 12,7 13,7 15 8 40 22 WSW 1004,8 39 0 0,0
26.10.2020 07:00:00 9,2 6,8 7,0 12,7 13,7 15 8 35 19 WSW 1004,0 19 0 0,0
26.10.2020 06:00:00 9,0 6,3 7,7 12,7 13,7 22 12 46 25 WNW 1003,9 6 0 1,4
26.10.2020 05:00:00 10,4 7,1 8,1 12,8 13,8 20 11 38 21 W 1003,2 40 0 0,0
26.10.2020 04:00:00 9,4 7,0 6,4 12,8 13,7 16 9 29 16 W 1003,0 20 0 0,0
26.10.2020 03:00:00 9,1 6,9 6,9 12,9 13,7 11 6 29 15 W 1003,2 50 0 0,0
26.10.2020 02:00:00 8,6 6,4 5,9 12,9 13,7 16 9 27 15 W 1002,9 51 0 0,0
26.10.2020 01:00:00 8,7 6,3 6,9 12,9 13,7 13 7 24 13 WSW 1002,7 48 0 0,0
26.10.2020 00:00:00 8,8 5,9 5,9 13,0 13,7 17 9 27 15 WSW 1002,8 56 0 0,0
25.10.2020 23:00:00 8,2 5,7 5,9 13,0 13,7 12 6 18 10 SW 1002,7 57 0 0,0
25.10.2020 22:00:00 8,5 5,9 6,2 13,0 13,7 13 7 22 12 WSW 1002,0 60 0 0,0
25.10.2020 21:00:00 8,5 6,1 6,9 13,0 13,7 18 10 33 18 WSW 1001,4 55 0 0,0
25.10.2020 20:00:00 8,7 5,4 7,4 13,1 13,8 22 12 45 24 WSW 1000,9 54 0 0,4
25.10.2020 19:00:00 9,7 5,7 8,0 13,1 13,7 29 15 49 26 WSW 1000,3 60 0 0,0
25.10.2020 18:00:00 10,8 4,9 9,9 13,0 13,7 34 18 55 30 WSW 999,6 59 0 0,0
25.10.2020 17:00:00 12,2 6,7 11,8 13,0 13,7 28 15 50 27 WSW 999,4 18 17 0,0
25.10.2020 16:00:00 12,3 7,2 12,9 13,0 13,7 28 15 46 25 SW 998,9 28 18 0,0
25.10.2020 15:00:00 13,0 6,3 13,4 13,0 13,7 31 17 50 27 SW 998,8 29 44 0,0
25.10.2020 14:00:00 13,3 8,4 12,2 13,0 13,7 24 13 39 21 WSW 999,0 37 22 0,0
25.10.2020 13:00:00 12,5 7,8 9,3 13,1 13,7 24 13 54 29 SW 999,6 15 25 0,0
25.10.2020 12:00:00 12,8 8,1 13,3 13,1 13,7 36 19 57 31 SW 999,4 14 37 0,0
25.10.2020 11:00:00 12,8 8,1 10,8 13,2 13,8 33 18 56 30 SW 999,5 12 39 0,0
25.10.2020 10:00:00 12,1 7,6 10,3 13,2 13,7 35 19 54 29 SW 999,8 17 16 0,0
25.10.2020 09:00:00 10,6 7,8 7,5 13,3 13,7 22 12 35 19 SW 999,6 29 2 0,0
25.10.2020 08:00:00 9,3 6,4 8,1 13,2 13,7 18 10 43 23 SW 999,5 60 0 1,2
25.10.2020 07:00:00 11,1 7,2 9,3 13,3 13,7 24 13 43 23 SW 999,2 50 0 0,0
25.10.2020 06:00:00 10,9 6,2 9,4 13,3 13,7 26 14 47 25 SW 999,4 60 0 0,0
25.10.2020 05:00:00 11,0 6,7 9,6 13,3 13,7 26 14 40 21 SW 999,2 58 0 0,0
25.10.2020 04:00:00 11,3 7,6 10,1 13,4 13,7 24 13 44 24 SW 999,6 41 0 0,0
25.10.2020 03:00:00 11,9 8,7 10,5 13,4 13,7 26 14 50 27 SW 1000,0 20 0 0,0
25.10.2020 02:00:00 11,7 9,1 9,4 13,4 13,8 24 13 37 20 SW 1000,6 20 0 0,0
25.10.2020 01:00:00 - - - - - - - - - - - - - -
25.10.2020 00:00:00 11,1 8,8 9,7 13,5 13,7 21 11 33 18 SW 1001,1 35 0 0,0
24.10.2020 23:00:00 11,6 10,0 10,6 13,5 13,7 22 12 42 23 SW 1000,9 20 0 0,0
24.10.2020 22:00:00 11,9 10,5 11,0 13,5 13,7 28 15 45 24 SW 1000,7 20 0 0,0
24.10.2020 21:00:00 11,4 10,0 10,6 13,5 13,7 28 15 44 24 SW 1000,8 45 0 0,0
24.10.2020 20:00:00 11,3 9,9 10,6 13,5 13,7 23 12 68 37 SW 1000,3 40 0 2,4
24.10.2020 19:00:00 13,0 11,7 12,5 13,5 13,7 40 22 67 36 SSW 1000,1 15 0 0,0
24.10.2020 18:00:00 12,8 11,9 12,5 13,5 13,7 33 18 62 34 SSW 999,8 16 0 1,2
24.10.2020 17:00:00 13,4 12,6 12,6 13,4 13,7 38 20 67 36 SSW 1000,5 8 0 4,5
24.10.2020 16:00:00 13,9 12,3 13,2 13,4 13,7 50 27 101 54 SW 1001,5 1,5 0 0,8
24.10.2020 15:00:00 15,7 13,9 15,1 13,4 13,7 50 27 81 44 SSW 1001,7 10 0 0,0
24.10.2020 14:00:00 15,4 13,6 14,6 13,4 13,7 50 27 84 46 SSW 1003,0 15 0 0,0
24.10.2020 13:00:00 15,5 13,3 14,7 13,4 13,7 49 27 82 44 SSW 1004,4 13 0 0,0
24.10.2020 12:00:00 15,0 13,5 14,5 13,4 13,7 44 24 70 38 SSW 1005,3 11 0 0,0
24.10.2020 11:00:00 15,1 13,8 14,6 13,4 13,7 37 20 82 44 SSW 1006,1 15 0 0,0
24.10.2020 10:00:00 14,9 13,9 13,7 13,4 13,7 45 24 74 40 SSW 1006,7 14 0 0,2
24.10.2020 09:00:00 13,8 13,3 13,1 13,4 13,7 37 20 65 35 S 1007,5 6 0 0,6
24.10.2020 08:00:00 13,7 12,4 13,1 13,4 13,7 33 18 56 30 SSW 1008,2 7 0 0,0
24.10.2020 07:00:00 13,6 12,3 12,8 13,4 13,7 37 20 58 31 S 1008,5 20 0 0,0
24.10.2020 06:00:00 13,0 12,2 12,4 13,4 13,7 30 16 49 26 SSW 1009,6 19 0 0,0
24.10.2020 05:00:00 13,0 11,9 12,4 13,4 13,7 33 18 61 33 SW 1010,1 42 0 0,0
24.10.2020 04:00:00 13,2 12,6 12,5 13,4 13,7 30 16 48 26 SSW 1010,5 10 0 0,8
24.10.2020 03:00:00 12,9 12,1 12,3 13,4 13,7 27 15 41 22 SSW 1011,1 51 0 0,0
24.10.2020 02:00:00 12,5 11,9 12,2 13,4 13,7 26 14 41 22 S 1011,8 45 0 0,0
24.10.2020 01:00:00 12,4 11,8 11,4 13,4 13,7 27 15 41 22 SSW 1012,6 20 0 0,0
24.10.2020 00:00:00 12,0 11,2 11,0 13,5 13,7 19 10 31 17 SSW 1013,3 47 0 0,0
23.10.2020 23:00:00 11,7 10,8 11,0 13,4 13,7 21 11 31 17 SSW 1013,5 47 0 0,0
23.10.2020 22:00:00 12,2 11,6 10,9 13,5 13,7 21 11 33 18 SW 1013,3 20 0 0,0
23.10.2020 21:00:00 11,8 11,3 10,7 13,5 13,7 14 8 22 12 SSW 1013,4 43 0 0,0
23.10.2020 20:00:00 11,7 11,2 11,0 13,5 13,7 14 7 22 12 SSW 1013,5 49 0 0,0
23.10.2020 19:00:00 11,9 11,1 11,2 13,4 13,7 13 7 30 16 SSW 1013,2 60 0 0,2
23.10.2020 18:00:00 12,4 11,8 12,3 13,4 13,7 11 6 22 12 SW 1013,0 3,7 0 0,2
23.10.2020 17:00:00 12,7 11,8 12,6 13,4 13,7 11 6 17 9 WSW 1012,9 18 0 0,0
23.10.2020 16:00:00 12,0 11,1 12,3 13,4 13,7 9 5 46 25 W 1012,9 5 0 1,6
23.10.2020 15:00:00 13,2 12,1 12,9 13,4 13,7 28 15 49 26 SW 1012,5 4,3 0 0,4
23.10.2020 14:00:00 14,1 10,7 13,5 13,4 13,7 28 15 44 24 SW 1012,4 20 0 0,0
23.10.2020 13:00:00 14,1 9,9 15,1 13,4 13,7 29 15 44 24 SW 1012,6 35 21 0,0
23.10.2020 12:00:00 13,6 9,0 13,9 13,4 13,7 29 16 42 23 WSW 1012,8 38 11 0,0
23.10.2020 11:00:00 13,5 9,9 12,7 13,4 13,7 22 12 36 19 SW 1012,1 54 16 0,0
23.10.2020 10:00:00 12,5 10,7 12,2 13,4 13,7 16 9 24 13 WSW 1011,9 57 5 0,0
23.10.2020 09:00:00 11,8 10,7 11,6 13,4 13,7 11 6 35 19 W 1011,2 58 0 0,0
23.10.2020 08:00:00 12,5 11,6 11,7 13,4 13,7 13 7 31 17 WSW 1010,4 52 0 0,0
23.10.2020 07:00:00 13,0 12,1 12,2 13,4 13,7 16 9 38 20 SW 1009,8 20 0 0,6
23.10.2020 06:00:00 13,5 12,7 12,9 13,4 13,7 23 12 39 21 SSW 1009,7 20 0 0,2
23.10.2020 05:00:00 13,2 12,6 12,4 13,4 13,7 18 10 29 16 SSW 1009,5 4,1 0 0,2
23.10.2020 04:00:00 12,8 12,2 12,0 13,4 13,7 19 10 27 15 S 1010,0 37 0 0,0
23.10.2020 03:00:00 12,9 12,3 12,3 13,5 13,7 16 9 25 14 S 1010,4 42 0 0,0
23.10.2020 02:00:00 12,9 12,3 11,9 13,5 13,7 12 6 20 11 S 1010,8 42 0 0,0
23.10.2020 01:00:00 12,5 11,9 11,6 13,5 13,7 13 7 22 12 S 1011,0 42 0 0,0
23.10.2020 00:00:00 12,8 12,0 11,7 13,5 13,7 11 6 18 10 S 1011,2 30 0 0,0
22.10.2020 23:00:00 12,6 11,8 11,8 13,5 13,7 14 8 22 12 S 1011,3 29 0 0,0
22.10.2020 22:00:00 13,1 12,3 12,1 13,5 13,7 16 9 22 12 S 1011,3 42 0 0,0
22.10.2020 21:00:00 12,8 12,2 11,6 13,5 13,7 16 9 24 13 S 1011,1 34 0 0,0
22.10.2020 20:00:00 12,9 12,0 11,8 13,5 13,6 15 8 23 12 S 1011,0 45 0 0,0
22.10.2020 19:00:00 13,5 11,9 12,5 13,4 13,7 12 7 22 12 S 1010,8 60 0 0,0
22.10.2020 18:00:00 14,7 12,0 13,9 13,4 13,6 16 9 26 14 SSW 1010,6 60 26 0,0
22.10.2020 17:00:00 15,5 11,7 15,3 13,4 13,7 16 9 32 17 S 1010,4 58 8 0,0
22.10.2020 16:00:00 16,3 11,7 17,0 13,3 13,7 22 12 31 17 S 1010,1 40 46 0,0
22.10.2020 15:00:00 17,4 11,4 18,9 13,2 13,7 20 11 31 17 SSW 1009,9 60 60 0,0
22.10.2020 14:00:00 17,8 12,5 20,3 13,2 13,7 17 9 29 16 S 1010,1 20 54 0,0
22.10.2020 13:00:00 17,1 13,0 16,0 13,2 13,7 18 10 29 15 SSW 1010,5 5 49 0,0
22.10.2020 12:00:00 14,7 12,4 15,9 13,2 13,7 15 8 28 15 SSW 1010,7 38 35 0,0
22.10.2020 11:00:00 14,1 13,3 14,4 13,2 13,6 16 9 24 13 S 1010,5 19 10 0,0
22.10.2020 10:00:00 14,0 13,7 13,4 13,3 13,6 14 7 21 11 SSW 1010,3 19 0 0,0
22.10.2020 09:00:00 13,1 12,8 12,4 13,2 13,7 15 8 21 11 S 1009,9 16 0 0,0
22.10.2020 08:00:00 12,6 12,3 12,2 13,2 13,7 9 5 22 12 S 1009,0 7 0 0,0
22.10.2020 07:00:00 12,9 12,6 12,4 13,2 13,7 10 6 17 9 S 1008,6 8 0 0,0
22.10.2020 06:00:00 12,9 12,6 11,8 13,3 13,7 13 7 20 11 SSW 1008,4 3,4 0 0,0
22.10.2020 05:00:00 12,2 11,9 9,6 13,3 13,7 8 4 21 11 S 1008,0 8 0 0,0
22.10.2020 04:00:00 11,5 11,0 8,6 13,3 13,6 11 6 17 9 S 1008,1 8 0 0,0
22.10.2020 03:00:00 12,0 11,5 10,8 13,4 13,7 11 6 17 9 S 1008,1 9 0 0,0
22.10.2020 02:00:00 12,6 12,1 11,6 13,3 13,7 12 7 19 11 S 1008,1 9 0 0,0
22.10.2020 01:00:00 12,0 11,5 10,1 13,4 13,7 10 5 19 10 S 1007,8 13 0 0,0
22.10.2020 00:00:00 11,7 10,9 10,1 13,4 13,6 14 7 22 12 S 1007,4 11 0 0,0
21.10.2020 23:00:00 12,2 11,4 11,2 13,4 13,6 15 8 23 12 SSW 1007,0 11 0 0,0
21.10.2020 22:00:00 12,4 11,3 11,6 13,5 13,7 17 9 28 15 SSW 1006,5 11 0 0,0
21.10.2020 21:00:00 12,5 11,2 11,6 13,4 13,7 18 10 32 17 SSW 1005,9 20 0 0,0
21.10.2020 20:00:00 13,0 11,2 12,3 13,4 13,7 19 11 34 18 SSW 1005,5 20 0 0,0
21.10.2020 19:00:00 13,1 11,2 12,3 13,5 13,7 20 11 39 21 SSW 1004,8 37 0 0,0
21.10.2020 18:00:00 13,8 10,8 13,2 13,4 13,6 27 15 49 27 SSW 1004,0 46 44 0,0
21.10.2020 17:00:00 14,8 10,4 15,8 13,4 13,6 27 15 48 26 SSW 1003,3 26 60 0,0
21.10.2020 16:00:00 15,3 11,5 16,2 13,3 13,6 34 18 54 29 SW 1002,5 20 60 0,0
21.10.2020 15:00:00 15,5 11,7 15,7 13,3 13,7 34 19 52 28 SW 1001,7 28 42 0,0
21.10.2020 14:00:00 15,4 13,1 14,3 13,3 13,7 28 15 51 28 WSW 1000,7 41 17 0,0
21.10.2020 13:00:00 14,3 13,5 14,2 13,2 13,7 31 17 47 26 SW 999,2 8 0 1,2
21.10.2020 12:00:00 14,1 13,3 14,0 13,2 13,7 23 13 38 20 SW 998,3 19 3 0,2
21.10.2020 11:00:00 14,2 13,6 14,1 13,2 13,7 20 11 40 22 WSW 997,4 19 0 1,2
21.10.2020 10:00:00 13,9 13,6 14,0 13,2 13,6 29 15 45 25 SW 995,8 11 0 0,8
21.10.2020 09:00:00 14,0 13,7 14,1 13,2 13,7 15 8 27 15 SW 994,3 3,0 0 0,2
21.10.2020 08:00:00 14,2 13,9 14,1 13,2 13,7 11 6 19 10 SSW 992,9 4,3 0 0,8
21.10.2020 07:00:00 14,3 13,8 14,2 13,2 13,7 10 6 16 8 SSW 991,7 7 0 2,2
21.10.2020 06:00:00 14,4 13,9 14,0 13,2 13,7 5 3 8 4 S 991,4 3,5 0 3,1
21.10.2020 05:00:00 14,5 14,0 14,3 13,1 13,7 5 3 8 4 E 991,2 5 0 2,6
21.10.2020 04:00:00 14,6 14,0 14,2 13,1 13,7 5 3 16 8 E 991,8 6 0 0,8
21.10.2020 03:00:00 14,9 14,1 14,5 13,1 13,7 11 6 20 11 SE 992,6 10 0 0,2
21.10.2020 02:00:00 15,1 14,0 15,0 13,1 13,7 13 7 26 14 SSE 993,8 14 0 0,0
21.10.2020 01:00:00 15,1 14,0 14,4 13,1 13,7 15 8 23 12 SE 994,4 14 0 0,0
21.10.2020 00:00:00 14,9 13,6 14,2 13,1 13,7 14 8 28 15 SSE 995,1 16 0 0,0
20.10.2020 23:00:00 14,6 13,3 14,2 13,1 13,7 17 9 33 18 SE 995,8 16 0 0,0
20.10.2020 22:00:00 14,6 13,3 13,6 13,1 13,7 17 9 34 18 SE 996,5 17 0 0,0
20.10.2020 21:00:00 14,4 12,4 13,7 13,0 13,7 22 12 30 16 SE 996,7 46 0 0,0
20.10.2020 20:00:00 15,1 11,7 14,0 13,0 13,7 20 11 34 18 SE 997,5 60 0 0,0
20.10.2020 19:00:00 15,6 11,8 14,7 13,0 13,7 18 10 34 18 SSE 998,1 60 0 0,0
20.10.2020 18:00:00 16,0 12,0 15,5 12,9 13,7 22 12 44 24 S 997,8 60 0 0,0
20.10.2020 17:00:00 16,8 12,5 17,2 12,9 13,7 31 17 52 28 S 998,8 46 52 0,0
20.10.2020 16:00:00 17,4 13,1 19,2 12,8 13,7 37 20 56 31 S 999,2 23 54 0,0
20.10.2020 15:00:00 17,8 13,1 19,4 12,8 13,7 37 20 64 35 S 999,6 23 56 0,0
20.10.2020 14:00:00 17,5 13,6 18,5 12,7 13,7 42 23 59 32 S 1000,1 27 43 0,0
20.10.2020 13:00:00 17,3 13,6 18,4 12,7 13,7 37 20 61 33 S 1000,5 20 49 0,0
20.10.2020 12:00:00 17,2 14,1 17,5 12,6 13,7 43 23 64 34 S 1000,9 20 34 0,0
20.10.2020 11:00:00 16,3 13,8 16,2 12,6 13,7 39 21 61 33 SSW 1000,9 19 16 0,0

tt = temperature
td = dewpoint
tt 5cm = temperature 5cm
tt -20cm = temperature -20cm
tt -100cm = temperature -100cm
ff = wind speed
fx = gusts
dd = wind direction
ppp = reduced air pressure
vv = visibility
sd = sunshine duration
rr = precipitation

Next stations